Punkttermin-Prognose für Kampen / Sylt
Modell: MOSMIX (Deutscher Wetterdienst)
Modelllaufzeit: 03 UTC
Aktualisierung: stündlich
Dienstag - 17.09.2019
| Wetter - | Temperaturen | Wind | Niederschlag | Druck | Sonne
Zeit GZ | Bewölkung | TT MAX MIN TG TM | DD FF FX1 | RR1 RR24 | PPPP | SS1 SS24
02:00 Uhr | --- | --- --- --- --- --- | --- --- --- | --- | --- | ---
03:00 Uhr | --- | --- --- --- --- --- | --- --- --- | --- | --- | ---
04:00 Uhr | --- | --- --- --- --- --- | --- --- --- | --- | --- | ---
05:00 Uhr | --- | --- --- --- --- --- | --- --- --- | --- | --- | ---
06:00 Uhr | starker Regenschauer | 12 --- --- 10 --- | NW 43 63 | 0.1 | 1013 | 0.0
07:00 Uhr | starker Regenschauer | 12 --- --- 10 --- | NW 44 67 | 0.1 | 1013 | 0.0
08:00 Uhr | starker Regenschauer | 12 --- 11 11 --- | NW 48 68 | 0.1 | 1013 | 0.1
09:00 Uhr | starker Regenschauer | 12 --- --- 12 --- | NW 50 72 | 0.3 | 1013 | 0.3
10:00 Uhr | starker Regenschauer | 12 --- --- 12 --- | NW 50 67 | 0.3 | 1013 | 0.4
11:00 Uhr | starker Regenschauer | 12 --- --- 13 --- | NW 54 78 | 0.1 | 1013 | 0.4
12:00 Uhr | starker Regenschauer | 12 --- --- 13 --- | NW 56 80 | 0.3 | 1013 | 0.4
13:00 Uhr | starker Regenschauer | 12 --- --- 13 --- | NW 57 82 | 0.4 | 1013 | 0.5
14:00 Uhr | starker Regenschauer | 13 --- --- 13 --- | NW 57 83 | 0.2 | 1013 | 0.5
15:00 Uhr | starker Regenschauer | 13 --- --- 13 --- | NW 59 85 | 0.1 | 1013 | 0.5
16:00 Uhr | Regenschauer | 13 --- --- 13 --- | NW 59 85 | 0.1 | 1013 | 0.5
17:00 Uhr | Regenschauer | 13 --- --- 13 --- | NW 59 85 | 0.1 | 1014 | 0.5
18:00 Uhr | Regenschauer | 13 --- --- 12 --- | NW 57 83 | 0.2 | 1014 | 0.4
19:00 Uhr | Regenschauer | 12 --- --- 12 --- | NW 56 82 | 0.2 | 1015 | 0.3
20:00 Uhr | Regenschauer | 12 14 --- 11 --- | NW 56 82 | 0.2 | 1015 | 0.1
21:00 Uhr | Regenschauer | 12 --- --- 11 --- | NW 54 80 | 0.2 | 1016 | 0.0
22:00 Uhr | Regenschauer | 12 --- --- 11 --- | NW 52 78 | 0.2 | 1016 | 0.0
23:00 Uhr | Regenschauer | 12 --- --- 11 --- | NW 52 78 | 0.2 | 1017 | 0.0
00:00 Uhr | Regenschauer | 12 --- --- 11 --- | NW 52 76 | 0.1 | 1017 | 0.0
Mittwoch - 18.09.2019
| Wetter - | Temperaturen | Wind | Niederschlag | Druck | Sonne
Zeit GZ | Bewölkung | TT MAX MIN TG TM | DD FF FX1 | RR1 RR24 | PPPP | SS1 SS24
01:00 Uhr | Regenschauer | 12 --- --- 11 --- | NW 52 76 | 0.1 | 1018 | 0.0
02:00 Uhr | Regenschauer | 12 --- --- 11 --- | NW 52 74 | 0.1 | 1018 | 0.0
03:00 Uhr | Regenschauer | 12 --- --- 11 --- | NW 50 72 | 0.1 | 1019 | 0.0
04:00 Uhr | Regenschauer | 12 --- --- 11 --- | NW 50 70 | 0.1 | 1019 | 0.0
05:00 Uhr | Regenschauer | 12 --- --- 11 --- | NW 48 70 | 0.1 | 1020 | 0.0
06:00 Uhr | wolkig | 12 --- --- 10 --- | NW 46 67 | 0.0 | 1020 | 0.0
07:00 Uhr | wolkig | 12 --- --- 11 --- | NW 46 67 | 0.0 | 1021 | 0.0
08:00 Uhr | wolkig | 12 --- 11 11 --- | NW 46 67 | 0.0 | 1021 | 0.2
09:00 Uhr | wolkig | 12 --- --- 12 --- | NW 44 67 | 0.0 | 1022 | 0.4
10:00 Uhr | wolkig | 13 --- --- 13 --- | NW 44 67 | 0.0 | 1022 | 0.5
11:00 Uhr | wolkig | 13 --- --- 14 --- | NW 44 65 | 0.0 | 1023 | 0.6
12:00 Uhr | wolkig | 13 --- --- 15 --- | NW 44 65 | 0.0 | 1023 | 0.5
13:00 Uhr | wolkig | 14 --- --- 15 --- | NW 44 65 | 0.0 | 1024 | 0.6
14:00 Uhr | wolkig | 14 --- --- 15 --- | NW 44 65 | 0.0 | 1024 | 0.6
15:00 Uhr | wolkig | 14 --- --- 15 --- | NW 44 63 | 0.0 | 1024 | 0.6
16:00 Uhr | wolkig | 14 --- --- 15 --- | NW 44 61 | 0.0 | 1024 | 0.6
17:00 Uhr | wolkig | 13 --- --- 14 --- | NW 44 61 | 0.0 | 1024 | 0.5
18:00 Uhr | wolkig | 13 --- --- 13 --- | NW 43 59 | 0.0 | 1024 | 0.4
19:00 Uhr | wolkig | 12 --- --- 12 --- | NW 43 59 | 0.0 | 1024 | 0.3
20:00 Uhr | wolkig | 12 15 --- 11 --- | NW 41 57 | 0.0 | 1024 | 0.1
21:00 Uhr | wolkig | 12 --- --- 11 --- | NW 39 57 | 0.0 | 1025 | 0.0
22:00 Uhr | wolkig | 12 --- --- 10 --- | NW 39 56 | 0.0 | 1025 | 0.0
23:00 Uhr | wolkig | 12 --- --- 11 | NW 37 54 | 0.0 | 1025 | 0.0
00:00 Uhr | wolkig | 12 --- --- 11 12 | NW 35 52 | 0.0 0.5 | 1025 | 0.0 5.8
Donnerstag - 19.09.2019
| Wetter - | Temperaturen | Wind | Niederschlag | Druck | Sonne
Zeit GZ | Bewölkung | TT MAX MIN TG TM | DD FF FX1 | RR1 RR24 | PPPP | SS1 SS24
01:00 Uhr | wolkig | 12 --- --- 11 --- | NW 33 50 | 0.0 | 1025 | 0.0
02:00 Uhr | wolkig | 12 --- --- 11 --- | NW 32 46 | 0.0 | 1026 | 0.0
03:00 Uhr | wolkig | 12 --- --- 11 --- | NW 30 44 | 0.0 | 1025 | 0.0
04:00 Uhr | wolkig | 12 --- --- 11 --- | NW 30 43 | 0.0 | 1026 | 0.0
05:00 Uhr | wolkig | 12 --- --- 11 --- | NW 28 41 | 0.0 | 1025 | 0.0
06:00 Uhr | wolkig | 12 --- --- 11 --- | NW 26 41 | 0.0 | 1026 | 0.0
07:00 Uhr | wolkig | 12 --- --- 11 --- | NW 26 --- | 0.0 | 1026 | 0.0
08:00 Uhr | wolkig | 12 --- 11 11 --- | NW 24 --- | 0.0 | 1026 | 0.1
09:00 Uhr | wolkig | 12 --- --- 12 --- | NW 24 --- | 0.0 | 1027 | 0.2
10:00 Uhr | wolkig | 13 --- --- 14 --- | NW 24 --- | 0.0 | 1027 | 0.3
11:00 Uhr | wolkig | 13 --- --- 15 --- | NW 24 --- | 0.0 | 1028 | 0.4
12:00 Uhr | wolkig | 14 --- --- 16 --- | NW 24 --- | 0.0 | 1028 | 0.4
13:00 Uhr | wolkig | 14 --- --- 16 --- | NW 26 --- | 0.0 | 1028 | 0.4
14:00 Uhr | stark bewölkt | 14 --- --- 17 --- | NW 26 --- | 0.0 | 1028 | 0.3
15:00 Uhr | stark bewölkt | 14 --- --- 17 --- | NW 24 --- | 0.0 | 1028 | 0.3
16:00 Uhr | wolkig | 14 --- --- 16 --- | NW 24 --- | 0.0 | 1028 | 0.3
17:00 Uhr | wolkig | 14 --- --- 15 --- | NW 24 --- | 0.0 | 1027 | 0.3
18:00 Uhr | stark bewölkt | 14 --- --- 14 --- | NW 24 --- | 0.0 | 1027 | 0.2
19:00 Uhr | stark bewölkt | 13 --- --- 13 --- | NW 24 --- | 0.0 | 1027 | 0.1
20:00 Uhr | stark bewölkt | 13 15 --- 12 --- | NW 22 --- | 0.0 | 1027 | 0.0
21:00 Uhr | stark bewölkt | 13 --- --- 12 --- | NW 24 --- | 0.0 | 1027 | 0.0
22:00 Uhr | stark bewölkt | 13 --- --- 12 --- | NW 22 --- | 0.0 | 1027 | 0.0
23:00 Uhr | stark bewölkt | 13 --- --- 12 | NW 22 --- | 0.0 | 1027 | 0.0
00:00 Uhr | stark bewölkt | 14 --- --- 12 13 | NW 22 --- | 0.0 0.0 | 1027 | 0.0 3.2
Freitag - 20.09.2019
| Wetter - | Temperaturen | Wind | Niederschlag | Druck | Sonne
Zeit GZ | Bewölkung | TT MAX MIN TG TM | DD FF FX3 | RR3 RR24 | PPPP | SS3 SS24
02:00 Uhr | stark bewölkt | 14 --- --- 13 --- | NW 22 --- | 0.0 | 1027 | 0.0
05:00 Uhr | stark bewölkt | 14 --- --- 13 --- | NW 22 --- | 0.0 | 1026 | 0.0
08:00 Uhr | stark bewölkt | 14 --- 13 14 --- | NW 22 --- | 0.0 | 1026 | 0.0
11:00 Uhr | stark bewölkt | 15 --- --- 16 --- | NW 22 --- | 0.0 | 1027 | 0.4
14:00 Uhr | wolkig | 16 --- --- 18 --- | NW 22 --- | 0.0 | 1027 | 0.8
17:00 Uhr | wolkig | 16 --- --- 17 --- | NW 20 --- | 0.0 | 1026 | 1.1
20:00 Uhr | wolkig | 15 17 --- 14 --- | NW 17 --- | 0.0 | 1026 | 0.7
23:00 Uhr | wolkig | 14 --- --- 13 15 | W 15 --- | 0.0 0.0 | 1026 | 0.0 3.2
Samstag - 21.09.2019
| Wetter - | Temperaturen | Wind | Niederschlag | Druck | Sonne
Zeit GZ | Bewölkung | TT MAX MIN TG TM | DD FF FX3 | RR3 RR24 | PPPP | SS3 SS24
02:00 Uhr | wolkig | 14 --- --- 12 --- | W 13 --- | 0.0 | 1025 | 0.0
05:00 Uhr | wolkig | 14 --- --- 12 --- | SW 15 --- | 0.0 | 1024 | 0.0
08:00 Uhr | wolkig | 14 --- 13 14 --- | SW 15 --- | 0.0 | 1024 | 0.2
11:00 Uhr | wolkig | 16 --- --- 18 --- | S 15 --- | 0.0 | 1024 | 1.4
14:00 Uhr | leicht bewölkt | 18 --- --- 21 --- | S 17 --- | 0.0 | 1023 | 2.0
17:00 Uhr | leicht bewölkt | 18 --- --- 20 --- | S 18 --- | 0.0 | 1022 | 2.1
20:00 Uhr | leicht bewölkt | 16 19 --- 15 --- | SO 18 --- | 0.0 | 1022 | 1.3
23:00 Uhr | leicht bewölkt | 16 --- --- 14 16 | SO 20 --- | 0.0 0.0 | 1021 | 0.0 7.0
Sonntag - 22.09.2019
| Wetter - | Temperaturen | Wind | Niederschlag | Druck | Sonne
Zeit GZ | Bewölkung | TT MAX MIN TG TM | DD FF FX3 | RR3 RR24 | PPPP | SS3 SS24
02:00 Uhr | leicht bewölkt | 15 --- --- 14 --- | SO 20 --- | 0.0 | 1020 | 0.0
05:00 Uhr | leicht bewölkt | 15 --- --- 14 --- | SO 22 --- | 0.0 | 1020 | 0.0
08:00 Uhr | leicht bewölkt | 15 --- 14 14 --- | SO 24 --- | 0.0 | 1019 | 0.3
11:00 Uhr | leicht bewölkt | 16 --- --- 18 --- | SO 26 41 | 0.0 | 1019 | 1.9
14:00 Uhr | leicht bewölkt | 18 --- --- 21 --- | SO 26 43 | 0.0 | 1018 | 2.3
17:00 Uhr | leicht bewölkt | 18 --- --- 20 --- | SO 26 41 | 0.0 | 1017 | 2.4
20:00 Uhr | leicht bewölkt | 17 20 --- 16 --- | SO 24 41 | 0.0 | 1017 | 1.2
23:00 Uhr | leicht bewölkt | 16 --- --- 15 16 | SO 24 --- | 0.0 0.0 | 1017 | 0.0 8.0
Montag - 23.09.2019
| Wetter - | Temperaturen | Wind | Niederschlag | Druck | Sonne
Zeit GZ | Bewölkung | TT MAX MIN TG TM | DD FF FX3 | RR3 RR24 | PPPP | SS3 SS24
02:00 Uhr | wolkig | 16 --- --- 15 --- | SO 24 --- | 0.0 | 1017 | 0.0
05:00 Uhr | wolkig | 16 --- --- 14 --- | SO 22 --- | 0.0 | 1016 | 0.0
08:00 Uhr | wolkig | 16 --- 15 15 --- | SO 24 --- | 0.0 | 1016 | 0.1
11:00 Uhr | wolkig | 17 --- --- 18 --- | SO 24 --- | 0.0 | 1016 | 1.2
14:00 Uhr | wolkig | 18 --- --- 20 --- | S 26 --- | 0.0 | 1016 | 1.4
17:00 Uhr | wolkig | 18 --- --- 18 --- | S 24 41 | 0.0 | 1015 | 1.5
20:00 Uhr | wolkig | 17 19 --- 15 --- | S 26 41 | 0.0 | 1015 | 0.7
23:00 Uhr | wolkig | 16 --- --- 14 16 | S 26 41 | 0.0 0.0 | 1015 | 0.0 5.0
Dienstag - 24.09.2019
| Wetter - | Temperaturen | Wind | Niederschlag | Druck | Sonne
Zeit GZ | Bewölkung | TT MAX MIN TG TM | DD FF FX3 | RR3 RR24 | PPPP | SS3 SS24
02:00 Uhr | wolkig | 16 --- --- 14 --- | SO 28 43 | 0.0 | 1014 | 0.0
05:00 Uhr | wolkig | 16 --- --- 14 --- | SO 28 43 | 0.0 | 1014 | 0.0
08:00 Uhr | wolkig | 16 --- 15 15 --- | SO 26 43 | 0.0 | 1014 | 0.1
11:00 Uhr | wolkig | 17 --- --- 17 --- | S 28 44 | 0.0 | 1014 | 1.0
14:00 Uhr | wolkig | 18 --- --- 20 --- | S 28 46 | 0.0 | 1014 | 1.3
17:00 Uhr | wolkig | 18 --- --- 18 --- | S 28 46 | 0.0 | 1013 | 1.3
20:00 Uhr | wolkig | 16 19 --- 15 --- | S 26 46 | 0.0 | 1012 | 0.6
23:00 Uhr | wolkig | 16 --- --- 14 16 | SO 26 44 | 0.0 0.0 | 1012 | 0.0 4.2
Mittwoch - 25.09.2019
| Wetter - | Temperaturen | Wind | Niederschlag | Druck | Sonne
Zeit GZ | Bewölkung | TT MAX MIN TG TM | DD FF FX3 | RR3 RR24 | PPPP | SS3 SS24
02:00 Uhr | wolkig | 16 --- --- 14 --- | S 28 43 | 0.0 | 1011 | 0.0
05:00 Uhr | wolkig | 15 --- --- 14 --- | SO 28 44 | 0.0 | 1011 | 0.0
08:00 Uhr | wolkig | 15 --- 14 14 --- | SO 28 44 | 0.0 | 1010 | 0.1
11:00 Uhr | wolkig | 16 --- --- 17 --- | S 30 46 | 0.0 | 1012 | 1.0
14:00 Uhr | wolkig | 17 --- --- 19 --- | S 30 46 | 0.0 | 1011 | 1.3
17:00 Uhr | wolkig | 17 --- --- 18 --- | S 28 46 | 0.0 | 1011 | 1.4
20:00 Uhr | wolkig | 16 18 --- 15 --- | S 26 44 | 0.0 | 1012 | 0.6
23:00 Uhr | wolkig | 15 --- --- 14 16 | S 26 43 | 0.0 0.0 | 1011 | 0.0 4.5
Donnerstag - 26.09.2019
| Wetter - | Temperaturen | Wind | Niederschlag | Druck | Sonne
Zeit GZ | Bewölkung | TT MAX MIN TG TM | DD FF FX3 | RR3 RR24 | PPPP | SS3 SS24
02:00 Uhr | wolkig | 15 --- --- 14 --- | S 26 41 | 0.0 | 1011 | 0.0
05:00 Uhr | wolkig | 15 --- --- 14 --- | S 28 44 | 0.0 | 1011 | 0.0
08:00 Uhr | wolkig | 15 --- 14 14 --- | SO 26 44 | 0.0 | 1011 | 0.1
11:00 Uhr | wolkig | 16 --- --- 16 --- | S 28 46 | 0.0 | 1012 | 0.9
14:00 Uhr | wolkig | 17 --- --- 18 --- | S 28 46 | 0.0 | 1012 | 1.3
17:00 Uhr | wolkig | 16 --- --- 17 --- | S 28 46 | 0.0 | 1012 | 1.3
20:00 Uhr | wolkig | 16 18 --- 14 --- | S 26 44 | 0.0 | 1013 | 0.8
23:00 Uhr | wolkig | 15 --- --- 14 16 | S 26 43 | 0.0 0.0 | 1014 | 0.0 4.4
Freitag - 27.09.2019
| Wetter - | Temperaturen | Wind | Niederschlag | Druck | Sonne
Zeit GZ | Bewölkung | TT MAX MIN TG TM | DD FF FX3 | RR3 RR24 | PPPP | SS3 SS24
02:00 Uhr | wolkig | 15 --- --- 13 --- | S 26 41 | 0.0 | 1013 | 0.0
05:00 Uhr | wolkig | 14 --- --- 13 --- | S 26 41 | 0.0 | 1012 | 0.0
---:00 Uhr | --- | --- --- --- --- --- | --- --- --- | --- | --- | ---
---:00 Uhr | --- | --- --- --- --- --- | --- --- --- | --- | --- | ---
---:00 Uhr | --- | --- --- --- --- --- | --- --- --- | --- | --- | ---
---:00 Uhr | --- | --- --- --- --- --- | --- --- --- | --- | --- | ---
---:00 Uhr | --- | --- --- --- --- --- | --- --- --- | --- | --- | ---
---:00 Uhr | --- | --- --- --- --- --- | --- --- --- | --- --- | --- | ---


Wetter : Wetter/Bewölkung zum Termin (aktuelle Stunde) TT : Lufttemperatur in Grad Celsius zum Termin MAX : Maximum Lufttemperatur in Grad Celsius letzte 12 Stunden MIN : Minimum Lufttemperatur der vergangenen Nacht in Grad Celsius letzte 12 Stunden TG : Temperatur in 5cm überm Erdboden TM : Tagesmittel Lufttemperatur in Grad Celsius letzte 24 Stunden DD : Windrichtung zum Termin FF : Windgeschwindigkeit zum Termin FX1 : höchste Windspitze im Bezugszeitraum letzte 1 Stunde in km/h FX3 : höchste Windspitze im Bezugszeitraum letzte 3 Stunden in km/h PPPP : reduzierter Luftdruck auf Meereshöhe in hPa zum Termin RR1 : Niederschlagsmenge im Bezugszeitraum letzte 1 Stunde in mm = l/qm RR3 : Niederschlagsmenge im Bezugszeitraum letzte 3 Stunden in mm = l/qm RR24 : Niederschlagsmenge im Bezugszeitraum letzte 24 Stunden in mm = l/qm SS1 : Sonnenscheindauer letzte 1 Stunde SS3 : Sonnenscheindauer letzte 3 Stunden SS24 : Sonnenscheindauer letzte 24 Stunden --- : Wert nicht vorhanden